This demonstration page uses our WeatherBlox Daily Observations layout. Learn more.

Left ArrowRight Arrow

Hourly Observations for February 14, 2017

Temp ( °F °C ) Dew Point ( °F °C ) Humidity (%) Winds ( mph kmh ) Pressure ( in mb ) Visibility ( mi km ) Precip ( " mm )
12:53 am 00:53 Cloudy 33 0.6 28 -2.2 82 82 N N/A 30.08 1019 10 16 N/A
1:53 am 01:53 Cloudy 34 1.1 26 -3.3 73 73 N N/A 30.06 1018 10 16 N/A
2:53 am 02:53 Cloudy 35 1.7 29 -1.7 78 78 N N/A 30.04 1017 10 16 N/A
3:53 am 03:53 Cloudy 35 1.7 29 -1.7 78 78 N N/A 30.01 1016 10 16 N/A
4:53 am 04:53 Cloudy 36 2.2 29 -1.7 76 76 NW 3 6 30.00 1016 10 16 N/A
5:53 am 05:53 Cloudy 39 3.9 26 -3.3 60 60 SW 7 11 29.99 1016 10 16 N/A
6:53 am 06:53 Cloudy 39 3.9 30 -1.1 70 70 SSW 3 6 30.00 1016 10 16 N/A
7:53 am 07:53 Cloudy 39 3.9 31 -0.6 73 73 SW 6 9 30.01 1016 10 16 N/A
8:53 am 08:53 Cloudy 40 4.4 31 -0.6 70 70 WSW 9 15 30.01 1016 10 16 N/A
9:53 am 09:53 Cloudy 43 6.1 28 -2.2 56 56 SW 8 13 29.97 1015 10 16 N/A
10:53 am 10:53 Mostly Cloudy 47 8.3 29 -1.7 50 50 WSW 14 22 29.94 1014 10 16 N/A
11:53 am 11:53 Sunny 50 10 30 -1.1 46 46 WSW 13 20 29.92 1013 10 16 N/A
12:53 pm 12:53 Sunny 52 11.1 27 -2.8 38 38 W 17 28 29.90 1012 10 16 N/A
1:53 pm 13:53 Sunny 53 11.7 27 -2.8 37 37 W 13 20 29.88 1012 10 16 N/A
2:53 pm 14:53 Sunny 54 12.2 29 -1.7 38 38 WSW 15 24 29.84 1011 10 16 N/A
3:53 pm 15:53 Sunny 53 11.7 29 -1.7 40 40 WSW 15 24 29.83 1010 10 16 N/A
4:53 pm 16:53 Sunny 52 11.1 28 -2.2 40 40 WSW 16 26 29.81 1010 10 16 N/A
5:53 pm 17:53 Sunny 50 10 28 -2.2 43 43 SW 7 11 29.80 1009 10 16 N/A
6:53 pm 18:53 Clear 47 8.3 27 -2.8 46 46 SW 3 6 29.79 1009 10 16 N/A
7:53 pm 19:53 Clear 40 4.4 29 -1.7 65 65 N N/A 29.79 1009 10 16 N/A
8:53 pm 20:53 Clear 46 7.8 28 -2.2 50 50 WSW 6 9 29.76 1008 10 16 N/A
9:53 pm 21:53 Clear 46 7.8 29 -1.7 51 51 WSW 6 9 29.75 1007 10 16 N/A
10:53 pm 22:53 Clear 44 6.7 30 -1.1 58 58 WSW 5 7 29.75 1007 10 16 N/A
11:53 pm 23:53 Clear 42 5.6 31 -0.6 65 65 WSW 6 9 29.73 1007 10 16 N/A

Powered by AerisWeather